Location: Barcelona
(41.3830°N, 2.1830°E)
Time: 00:24:23
(UTC+02:00)

ISS - Pass Details

Date: 30 March 2017
Orbit: 401 x 409 km, 51.6° (Epoch: 01 May)

Event Time Altitude Azimuth Distance (km) Brightness Sun altitude
Rises 22:11:27 0° 270° (W) 2,316 1.1 -21.8°
Reaches altitude 10° 22:13:50 10° 287° (WNW) 1,460 0.1 -22.2°
Maximum altitude 22:16:28 22° 340° (NNW) 946 -1.5 -22.6°
Enters shadow 22:17:30 19° 8° (N) 1,045 -1.6 -22.8°
